Location: Toronto
(43.6672°N, 79.4170°W)
Time: 02:36:31
(UTC-05:00)

ISS - All Passes

Search period start: 18 December 2014 00:00
Search period end: 28 December 2014 00:00
Orbit: 404 x 415 km, 51.6° (Epoch: 18 December)

Date Brightness Start Highest point End Pass type
(mag) Time Alt. Az. Time Alt. Az. Time Alt. Az.
18 Dec - 13:59:21 10° S 14:01:42 18° SE 14:04:04 10° E daylight
18 Dec - 15:34:44 10° WSW 15:38:00 63° NNW 15:41:17 10° NE daylight
18 Dec - 17:12:24 10° WNW 17:15:03 22° N 17:17:43 10° NE visible
18 Dec - 18:49:44 10° NW 18:52:25 23° N 18:55:05 10° ENE visible
18 Dec - 20:26:09 10° NW 20:29:26 69° NNE 20:32:41 10° ESE night (unlit)
18 Dec - 22:03:33 10° W 22:05:40 16° SW 22:07:46 10° S night (unlit)
19 Dec - 13:10:45 10° SE 13:11:15 10° SE 13:11:46 10° ESE daylight
19 Dec - 14:44:01 10° SW 14:47:19 78° SE 14:50:37 10° ENE daylight
19 Dec - 16:21:19 10° WNW 16:24:10 26° NNW 16:27:01 10° NE daylight
19 Dec - 17:58:57 10° NW 18:01:30 20° N 18:04:03 10° NE visible
19 Dec - 19:35:30 10° NW 19:38:40 44° NNE 19:41:49 10° E visible
19 Dec - 21:12:17 10° WNW 21:15:09 28° SW 21:17:59 10° SSE night (unlit)
20 Dec - 13:53:28 10° SW 13:56:37 43° SE 13:59:47 10° ENE daylight
20 Dec - 15:30:13 10° W 15:33:16 34° NNW 15:36:19 10° NE daylight
20 Dec - 17:08:01 10° NW 17:10:31 20° N 17:13:02 10° NE daylight
20 Dec - 18:44:48 10° NW 18:47:48 31° NNE 18:50:47 10° E visible
20 Dec - 20:21:18 10° WNW 20:24:30 50° SW 20:27:40 10° SE visible
21 Dec - 13:03:12 10° SSW 13:05:57 25° SE 13:08:42 10° E daylight
21 Dec - 14:39:09 10° WSW 14:42:22 49° NNW 14:45:35 10° NE daylight
21 Dec - 16:16:54 10° WNW 16:19:29 21° N 16:22:04 10° NE daylight
21 Dec - 17:54:02 10° NW 17:56:50 25° NNE 17:59:36 10° ENE visible
21 Dec - 19:30:26 10° WNW 19:33:44 89° SSW 19:37:00 10° ESE visible
21 Dec - 21:08:33 10° WSW 21:09:50 12° SW 21:11:06 10° SSW night (unlit)
22 Dec - 12:13:27 10° SSE 12:15:17 14° SE 12:17:08 10° E daylight
22 Dec - 13:48:10 10° WSW 13:51:28 79° NNW 13:54:46 10° ENE daylight
22 Dec - 15:25:40 10° WNW 15:28:25 24° NNW 15:31:10 10° NE daylight
22 Dec - 17:03:08 10° NW 17:05:45 21° N 17:08:22 10° ENE daylight
22 Dec - 18:39:35 10° NW 18:42:50 55° NNE 18:46:03 10° ESE visible
22 Dec - 20:16:38 10° W 20:19:10 21° SW 20:21:42 10° S visible
23 Dec - 12:57:19 10° SW 13:00:34 59° SE 13:03:50 10° ENE daylight
23 Dec - 14:34:23 10° W 14:37:19 29° NNW 14:40:16 10° NE daylight
23 Dec - 16:12:05 10° NW 16:14:37 20° N 16:17:08 10° NE daylight
23 Dec - 17:48:44 10° NW 17:51:49 37° NNE 17:54:54 10° E visible
23 Dec - 19:25:20 10° WNW 19:28:24 37° SW 19:31:26 10° SSE visible
24 Dec - 12:06:42 10° SSW 12:09:42 33° SE 12:12:42 10° ENE daylight
24 Dec - 13:43:05 10° W 13:46:13 40° NNW 13:49:22 10° NE daylight
24 Dec - 15:20:52 10° NW 15:23:24 20° N 15:25:56 10° NE daylight
24 Dec - 16:57:48 10° NW 17:00:42 28° NNE 17:03:35 10° ENE daylight
24 Dec - 18:34:13 10° WNW 18:37:30 67° SW 18:40:44 10° SE visible
25 Dec - 11:16:26 10° S 11:18:50 19° SE 11:21:14 10° E daylight
25 Dec - 12:51:51 10° WSW 12:55:07 61° NNW 12:58:24 10° NE daylight
25 Dec - 14:29:29 10° WNW 14:32:09 22° N 14:34:48 10° NE daylight
25 Dec - 16:06:47 10° NW 16:09:29 23° N 16:12:11 10° ENE daylight
25 Dec - 17:43:10 10° NW 17:46:28 71° NNE 17:49:44 10° ESE visible
25 Dec - 19:20:36 10° W 19:22:40 16° SW 19:24:43 10° S visible
26 Dec - 10:27:18 10° SE 10:27:59 11° SE 10:28:41 10° ESE daylight
26 Dec - 12:00:44 10° SW 12:04:01 80° SSE 12:07:20 10° ENE daylight
26 Dec - 13:38:01 10° WNW 13:40:52 26° NNW 13:43:43 10° NE daylight
26 Dec - 15:15:37 10° NW 15:18:11 20° N 15:20:44 10° NE daylight
26 Dec - 16:52:08 10° NW 16:55:19 44° NNE 16:58:28 10° E daylight
26 Dec - 18:28:54 10° WNW 18:31:45 27° SW 18:34:35 10° SSE visible
27 Dec - 11:09:47 10° SW 11:12:57 44° SE 11:16:07 10° ENE daylight
27 Dec - 12:46:31 10° W 12:49:34 34° NNW 12:52:37 10° NE daylight
27 Dec - 14:24:17 10° NW 14:26:48 20° N 14:29:19 10° NE daylight
27 Dec - 16:01:03 10° NW 16:04:03 31° NNE 16:07:02 10° E daylight
27 Dec - 17:37:31 10° WNW 17:40:43 50° SW 17:43:53 10° SE visible
